contact:dominique.lefevre@mio.osupytheas.fr, maurice.libes@osupytheas.fr, didier.mallarino@osupytheas.fr
Project:EMSO http://www.emso-fr.org/EMSO-France
Depth: 2436.0 m
Title:EMSO Ligure Ouest : Data MII capteur MICROCAT
DateTime_Computer,Latitude,Longitude,Temperature,Conductivity,Pressure,DateTime_Instrument
DateTime_Computer,Latitude,Longitude,degC,S m-1,dbar,DateTime_Instrument
2019-11-01T00:00:03Z,42.805,6.029,13.2968,4.60005,2469.984,2019-11-01T02:00:30Z
2019-11-01T00:03:06Z,42.805,6.029,13.2968,4.59999,2469.984,2019-11-01T02:03:33Z
2019-11-01T00:06:09Z,42.805,6.029,13.2974,4.60011,2469.96,2019-11-01T02:06:36Z
2019-11-01T00:09:12Z,42.805,6.029,13.2967,4.59995,2469.984,2019-11-01T02:09:39Z
2019-11-01T00:12:16Z,42.805,6.029,13.2967,4.60005,2469.947,2019-11-01T02:12:42Z
2019-11-01T00:15:19Z,42.805,6.029,13.2972,4.59999,2469.947,2019-11-01T02:15:45Z
2019-11-01T00:18:22Z,42.805,6.029,13.2970,4.60035,2469.96,2019-11-01T02:18:49Z
2019-11-01T00:21:25Z,42.805,6.029,13.2976,4.60015,2469.937,2019-11-01T02:21:52Z
2019-11-01T00:24:28Z,42.805,6.029,13.2971,4.59989,2469.9,2019-11-01T02:24:55Z
2019-11-01T00:27:32Z,42.805,6.029,13.2971,4.59999,2469.937,2019-11-01T02:27:58Z
2019-11-01T00:30:35Z,42.805,6.029,13.2970,4.60004,2469.937,2019-11-01T02:31:02Z
2019-11-01T00:33:38Z,42.805,6.029,13.2969,4.59999,2469.9,2019-11-01T02:34:05Z
2019-11-01T00:36:41Z,42.805,6.029,13.2971,4.59996,2469.9,2019-11-01T02:37:08Z
2019-11-01T00:39:44Z,42.805,6.029,13.2971,4.60006,2469.937,2019-11-01T02:40:11Z
2019-11-01T00:42:48Z,42.805,6.029,13.2973,4.60006,2469.914,2019-11-01T02:43:14Z
2019-11-01T00:45:51Z,42.805,6.029,13.2974,4.60006,2469.923,2019-11-01T02:46:17Z
2019-11-01T00:48:54Z,42.805,6.029,13.2976,4.60000,2469.914,2019-11-01T02:49:21Z
2019-11-01T00:51:57Z,42.805,6.029,13.2981,4.60019,2469.876,2019-11-01T02:52:24Z
2019-11-01T00:55:01Z,42.805,6.029,13.2977,4.60016,2469.923,2019-11-01T02:55:27Z
2019-11-01T00:58:04Z,42.805,6.029,13.2971,4.60011,2469.9,2019-11-01T02:58:30Z
2019-11-01T01:01:07Z,42.805,6.029,13.2974,4.60021,2469.914,2019-11-01T03:01:34Z
2019-11-01T01:04:10Z,42.805,6.029,13.2978,4.59988,2469.9,2019-11-01T03:04:37Z
2019-11-01T01:07:13Z,42.805,6.029,13.2987,4.60019,2469.914,2019-11-01T03:07:40Z
2019-11-01T01:10:17Z,42.805,6.029,13.2971,4.60023,2469.89,2019-11-01T03:10:43Z
2019-11-01T01:13:20Z,42.805,6.029,13.2990,4.60010,2469.914,2019-11-01T03:13:46Z
2019-11-01T01:16:23Z,42.805,6.029,13.2970,4.60001,2469.9,2019-11-01T03:16:50Z
2019-11-01T01:19:26Z,42.805,6.029,13.2989,4.60003,2469.876,2019-11-01T03:19:53Z
2019-11-01T01:22:29Z,42.805,6.029,13.2975,4.60007,2469.9,2019-11-01T03:22:56Z
2019-11-01T01:25:32Z,42.805,6.029,13.2972,4.60025,2469.876,2019-11-01T03:25:59Z
2019-11-01T01:28:36Z,42.805,6.029,13.2967,4.59999,2469.914,2019-11-01T03:29:02Z
2019-11-01T01:31:39Z,42.805,6.029,13.2972,4.60014,2469.876,2019-11-01T03:32:05Z
2019-11-01T01:34:42Z,42.805,6.029,13.2968,4.59995,2469.9,2019-11-01T03:35:09Z
2019-11-01T01:37:45Z,42.805,6.029,13.2978,4.60002,2469.89,2019-11-01T03:38:12Z
2019-11-01T01:40:48Z,42.805,6.029,13.2979,4.60021,2469.876,2019-11-01T03:41:15Z
2019-11-01T01:43:52Z,42.805,6.029,13.2987,4.60000,2469.914,2019-11-01T03:44:18Z
2019-11-01T01:46:55Z,42.805,6.029,13.2967,4.60013,2469.914,2019-11-01T03:47:21Z
2019-11-01T01:49:58Z,42.805,6.029,13.2988,4.60016,2469.876,2019-11-01T03:50:25Z
2019-11-01T01:53:01Z,42.805,6.029,13.2969,4.60019,2469.914,2019-11-01T03:53:28Z
2019-11-01T01:56:04Z,42.805,6.029,13.2967,4.59991,2469.876,2019-11-01T03:56:31Z
2019-11-01T01:59:08Z,42.805,6.029,13.2968,4.59994,2469.89,2019-11-01T03:59:34Z
2019-11-01T02:02:11Z,42.805,6.029,13.2968,4.60006,2469.923,2019-11-01T04:02:38Z
2019-11-01T02:05:14Z,42.805,6.029,13.2971,4.60006,2469.89,2019-11-01T04:05:41Z
2019-11-01T02:08:17Z,42.805,6.029,13.2970,4.59988,2469.937,2019-11-01T04:08:44Z
2019-11-01T02:11:21Z,42.805,6.029,13.2980,4.60011,2469.863,2019-11-01T04:11:47Z
2019-11-01T02:14:24Z,42.805,6.029,13.2974,4.59998,2469.89,2019-11-01T04:14:50Z
2019-11-01T02:17:27Z,42.805,6.029,13.2972,4.59990,2469.853,2019-11-01T04:17:54Z
2019-11-01T02:20:30Z,42.805,6.029,13.2974,4.60001,2469.914,2019-11-01T04:20:57Z
2019-11-01T02:23:33Z,42.805,6.029,13.2974,4.59996,2469.89,2019-11-01T04:24:00Z
2019-11-01T02:26:36Z,42.805,6.029,13.2964,4.59990,2469.9,2019-11-01T04:27:03Z
2019-11-01T02:29:40Z,42.805,6.029,13.2976,4.59986,2469.876,2019-11-01T04:30:06Z
2019-11-01T02:32:43Z,42.805,6.029,13.2971,4.59989,2469.89,2019-11-01T04:33:10Z
2019-11-01T02:35:46Z,42.805,6.029,13.2971,4.59986,2469.89,2019-11-01T04:36:13Z
2019-11-01T02:38:49Z,42.805,6.029,13.2971,4.59979,2469.867,2019-11-01T04:39:16Z
2019-11-01T02:41:53Z,42.805,6.029,13.2967,4.60024,2469.876,2019-11-01T04:42:19Z
2019-11-01T02:44:56Z,42.805,6.029,13.2962,4.59995,2469.853,2019-11-01T04:45:22Z
2019-11-01T02:47:59Z,42.805,6.029,13.2968,4.59982,2469.89,2019-11-01T04:48:26Z
2019-11-01T02:51:02Z,42.805,6.029,13.2976,4.59988,2469.853,2019-11-01T04:51:29Z
2019-11-01T02:54:05Z,42.805,6.029,13.2967,4.59997,2469.876,2019-11-01T04:54:32Z
2019-11-01T02:57:09Z,42.805,6.029,13.2967,4.59983,2469.867,2019-11-01T04:57:35Z
2019-11-01T03:00:12Z,42.805,6.029,13.2968,4.59987,2469.853,2019-11-01T05:00:38Z
2019-11-01T03:03:15Z,42.805,6.029,13.2971,4.59995,2469.853,2019-11-01T05:03:42Z
2019-11-01T03:06:18Z,42.805,6.029,13.2971,4.59989,2469.853,2019-11-01T05:06:45Z
2019-11-01T03:09:21Z,42.805,6.029,13.2981,4.60016,2469.853,2019-11-01T05:09:48Z
2019-11-01T03:12:24Z,42.805,6.029,13.2974,4.59995,2469.89,2019-11-01T05:12:51Z
2019-11-01T03:15:28Z,42.805,6.029,13.2974,4.59991,2469.876,2019-11-01T05:15:54Z
2019-11-01T03:18:31Z,42.805,6.029,13.2977,4.60003,2469.876,2019-11-01T05:18:58Z
2019-11-01T03:21:34Z,42.805,6.029,13.2971,4.60008,2469.853,2019-11-01T05:22:01Z
2019-11-01T03:24:37Z,42.805,6.029,13.2967,4.59991,2469.853,2019-11-01T05:25:04Z
2019-11-01T03:27:40Z,42.805,6.029,13.2980,4.60000,2469.876,2019-11-01T05:28:07Z
2019-11-01T03:30:44Z,42.805,6.029,13.2982,4.60019,2469.89,2019-11-01T05:31:10Z
2019-11-01T03:33:47Z,42.805,6.029,13.2977,4.59997,2469.867,2019-11-01T05:34:13Z
2019-11-01T03:36:50Z,42.805,6.029,13.2967,4.60010,2469.867,2019-11-01T05:37:17Z
2019-11-01T03:39:53Z,42.805,6.029,13.2968,4.59999,2469.83,2019-11-01T05:40:20Z
2019-11-01T03:42:56Z,42.805,6.029,13.2965,4.59996,2469.853,2019-11-01T05:43:23Z
2019-11-01T03:46:00Z,42.805,6.029,13.2973,4.59986,2469.867,2019-11-01T05:46:26Z
2019-11-01T03:49:03Z,42.805,6.029,13.2967,4.59990,2469.83,2019-11-01T05:49:30Z
2019-11-01T03:52:06Z,42.805,6.029,13.2976,4.59990,2469.867,2019-11-01T05:52:33Z
2019-11-01T03:55:10Z,42.805,6.029,13.2979,4.60010,2469.853,2019-11-01T05:55:36Z
2019-11-01T03:58:13Z,42.805,6.029,13.2976,4.60005,2469.867,2019-11-01T05:58:40Z
2019-11-01T04:01:16Z,42.805,6.029,13.2967,4.59996,2469.876,2019-11-01T06:01:43Z
2019-11-01T04:04:20Z,42.805,6.029,13.2967,4.60005,2469.853,2019-11-01T06:04:46Z
2019-11-01T04:07:23Z,42.805,6.029,13.2971,4.59984,2469.867,2019-11-01T06:07:49Z
2019-11-01T04:10:26Z,42.805,6.029,13.2972,4.59988,2469.89,2019-11-01T06:10:53Z
2019-11-01T04:13:29Z,42.805,6.029,13.2972,4.60003,2469.876,2019-11-01T06:13:56Z
2019-11-01T04:16:32Z,42.805,6.029,13.2971,4.59998,2469.844,2019-11-01T06:16:59Z
2019-11-01T04:19:36Z,42.805,6.029,13.2972,4.59981,2469.844,2019-11-01T06:20:02Z
2019-11-01T04:22:39Z,42.805,6.029,13.2971,4.59989,2469.867,2019-11-01T06:23:06Z
2019-11-01T04:25:42Z,42.805,6.029,13.2974,4.59998,2469.853,2019-11-01T06:26:09Z
2019-11-01T04:28:45Z,42.805,6.029,13.2977,4.60002,2469.867,2019-11-01T06:29:12Z
2019-11-01T04:31:48Z,42.805,6.029,13.2974,4.59989,2469.853,2019-11-01T06:32:15Z
2019-11-01T04:34:52Z,42.805,6.029,13.2970,4.59988,2469.89,2019-11-01T06:35:18Z
2019-11-01T04:37:55Z,42.805,6.029,13.2975,4.60022,2469.876,2019-11-01T06:38:21Z
2019-11-01T04:40:58Z,42.805,6.029,13.2988,4.59991,2469.876,2019-11-01T06:41:25Z
2019-11-01T04:44:01Z,42.805,6.029,13.2979,4.60014,2469.89,2019-11-01T06:44:28Z
2019-11-01T04:47:04Z,42.805,6.029,13.2973,4.60017,2469.853,2019-11-01T06:47:31Z
2019-11-01T04:50:08Z,42.805,6.029,13.2980,4.60000,2469.89,2019-11-01T06:50:34Z
2019-11-01T04:53:11Z,42.805,6.029,13.2968,4.59992,2469.853,2019-11-01T06:53:37Z
2019-11-01T04:56:14Z,42.805,6.029,13.2979,4.60005,2469.867,2019-11-01T06:56:41Z
2019-11-01T04:59:17Z,42.805,6.029,13.2974,4.60000,2469.853,2019-11-01T06:59:44Z
2019-11-01T05:02:20Z,42.805,6.029,13.2973,4.59991,2469.876,2019-11-01T07:02:47Z
2019-11-01T05:05:24Z,42.805,6.029,13.2974,4.59994,2469.876,2019-11-01T07:05:50Z
2019-11-01T05:08:27Z,42.805,6.029,13.2971,4.60004,2469.89,2019-11-01T07:08:54Z
2019-11-01T05:11:30Z,42.805,6.029,13.2970,4.59995,2469.867,2019-11-01T07:11:57Z
2019-11-01T05:14:33Z,42.805,6.029,13.2975,4.60016,2469.9,2019-11-01T07:15:00Z
2019-11-01T05:17:36Z,42.805,6.029,13.2969,4.60010,2469.876,2019-11-01T07:18:03Z
2019-11-01T05:20:40Z,42.805,6.029,13.2971,4.59990,2469.876,2019-11-01T07:21:06Z
2019-11-01T05:23:43Z,42.805,6.029,13.2968,4.59980,2469.9,2019-11-01T07:24:10Z
2019-11-01T05:26:46Z,42.805,6.029,13.2970,4.59985,2469.89,2019-11-01T07:27:13Z
2019-11-01T05:29:49Z,42.805,6.029,13.2964,4.60002,2469.876,2019-11-01T07:30:16Z
2019-11-01T05:32:52Z,42.805,6.029,13.2974,4.59980,2469.914,2019-11-01T07:33:19Z
2019-11-01T05:35:56Z,42.805,6.029,13.2974,4.59989,2469.904,2019-11-01T07:36:22Z
2019-11-01T05:38:59Z,42.805,6.029,13.2973,4.60030,2469.89,2019-11-01T07:39:25Z
2019-11-01T05:42:02Z,42.805,6.029,13.2967,4.60028,2469.9,2019-11-01T07:42:29Z
2019-11-01T05:45:05Z,42.805,6.029,13.2985,4.60003,2469.89,2019-11-01T07:45:32Z
2019-11-01T05:48:09Z,42.805,6.029,13.2974,4.60032,2469.914,2019-11-01T07:48:35Z
2019-11-01T05:51:12Z,42.805,6.029,13.2987,4.59998,2469.9,2019-11-01T07:51:38Z
2019-11-01T05:54:15Z,42.805,6.029,13.2986,4.60019,2469.914,2019-11-01T07:54:42Z
2019-11-01T05:57:18Z,42.805,6.029,13.2963,4.59999,2469.876,2019-11-01T07:57:45Z
2019-11-01T06:00:22Z,42.805,6.029,13.2974,4.60026,2469.914,2019-11-01T08:00:48Z
2019-11-01T06:03:25Z,42.805,6.029,13.2972,4.60018,2469.9,2019-11-01T08:03:51Z
2019-11-01T06:06:28Z,42.805,6.029,13.2981,4.59992,2469.89,2019-11-01T08:06:55Z
2019-11-01T06:09:31Z,42.805,6.029,13.2979,4.60017,2469.9,2019-11-01T08:09:58Z
2019-11-01T06:12:34Z,42.805,6.029,13.2980,4.60001,2469.937,2019-11-01T08:13:01Z
2019-11-01T06:15:38Z,42.805,6.029,13.2982,4.60004,2469.89,2019-11-01T08:16:04Z
2019-11-01T06:18:41Z,42.805,6.029,13.2969,4.60023,2469.937,2019-11-01T08:19:07Z
2019-11-01T06:21:44Z,42.805,6.029,13.2979,4.60029,2469.937,2019-11-01T08:22:11Z
2019-11-01T06:24:47Z,42.805,6.029,13.3005,4.59990,2469.923,2019-11-01T08:25:14Z
2019-11-01T06:27:50Z,42.805,6.029,13.2974,4.59979,2469.947,2019-11-01T08:28:17Z
2019-11-01T06:30:54Z,42.805,6.029,13.2973,4.59983,2469.947,2019-11-01T08:31:20Z
2019-11-01T06:33:57Z,42.805,6.029,13.2967,4.59978,2469.937,2019-11-01T08:34:24Z
2019-11-01T06:37:00Z,42.805,6.029,13.2967,4.59994,2469.923,2019-11-01T08:37:27Z
2019-11-01T06:40:03Z,42.805,6.029,13.2972,4.60005,2469.923,2019-11-01T08:40:30Z
2019-11-01T06:43:07Z,42.805,6.029,13.2974,4.59981,2469.96,2019-11-01T08:43:33Z
2019-11-01T06:46:10Z,42.805,6.029,13.2974,4.59995,2469.96,2019-11-01T08:46:36Z
2019-11-01T06:49:13Z,42.805,6.029,13.2985,4.60040,2469.96,2019-11-01T08:49:40Z
2019-11-01T06:52:16Z,42.805,6.029,13.2979,4.60010,2469.984,2019-11-01T08:52:43Z
2019-11-01T06:55:19Z,42.805,6.029,13.2974,4.60057,2469.97,2019-11-01T08:55:46Z
2019-11-01T06:58:23Z,42.805,6.029,13.2974,4.59996,2469.984,2019-11-01T08:58:49Z
2019-11-01T07:01:26Z,42.805,6.029,13.2974,4.60039,2469.947,2019-11-01T09:01:52Z
2019-11-01T07:04:29Z,42.805,6.029,13.2971,4.60002,2469.96,2019-11-01T09:04:56Z
2019-11-01T07:07:32Z,42.805,6.029,13.2970,4.59984,2469.97,2019-11-01T09:07:59Z
2019-11-01T07:10:35Z,42.805,6.029,13.2974,4.60000,2469.993,2019-11-01T09:11:02Z
2019-11-01T07:13:39Z,42.805,6.029,13.2981,4.60014,2469.97,2019-11-01T09:14:05Z
2019-11-01T07:16:42Z,42.805,6.029,13.2968,4.59991,2469.984,2019-11-01T09:17:09Z
2019-11-01T07:19:45Z,42.805,6.029,13.2979,4.60008,2469.984,2019-11-01T09:20:12Z
2019-11-01T07:22:48Z,42.805,6.029,13.2976,4.60012,2469.993,2019-11-01T09:23:15Z
2019-11-01T07:25:52Z,42.805,6.029,13.2968,4.60002,2470.03,2019-11-01T09:26:18Z
2019-11-01T07:28:55Z,42.805,6.029,13.2976,4.60001,2470.007,2019-11-01T09:29:21Z
2019-11-01T07:31:58Z,42.805,6.029,13.2974,4.60003,2469.993,2019-11-01T09:32:25Z
2019-11-01T07:35:01Z,42.805,6.029,13.2973,4.60003,2469.993,2019-11-01T09:35:28Z
2019-11-01T07:38:04Z,42.805,6.029,13.2970,4.59991,2470.007,2019-11-01T09:38:31Z
2019-11-01T07:41:08Z,42.805,6.029,13.2974,4.60008,2470.007,2019-11-01T09:41:34Z
2019-11-01T07:44:11Z,42.805,6.029,13.2979,4.59988,2470.053,2019-11-01T09:44:37Z
2019-11-01T07:47:14Z,42.805,6.029,13.2966,4.59985,2470.017,2019-11-01T09:47:41Z
2019-11-01T07:50:17Z,42.805,6.029,13.2973,4.59999,2470.017,2019-11-01T09:50:44Z
2019-11-01T07:53:20Z,42.805,6.029,13.2971,4.59988,2469.993,2019-11-01T09:53:47Z
2019-11-01T07:56:24Z,42.805,6.029,13.2968,4.59982,2470.04,2019-11-01T09:56:50Z
2019-11-01T07:59:27Z,42.805,6.029,13.2974,4.60011,2470.04,2019-11-01T09:59:54Z
2019-11-01T08:02:30Z,42.805,6.029,13.2974,4.60008,2470.053,2019-11-01T10:02:57Z
2019-11-01T08:05:33Z,42.805,6.029,13.2968,4.59992,2470.03,2019-11-01T10:06:00Z
2019-11-01T08:08:37Z,42.805,6.029,13.2969,4.60006,2470.03,2019-11-01T10:09:03Z
2019-11-01T08:11:40Z,42.805,6.029,13.2968,4.59994,2470.04,2019-11-01T10:12:07Z
2019-11-01T08:14:43Z,42.805,6.029,13.2968,4.59991,2470.063,2019-11-01T10:15:10Z
2019-11-01T08:17:46Z,42.805,6.029,13.2971,4.59993,2470.063,2019-11-01T10:18:13Z
2019-11-01T08:20:50Z,42.805,6.029,13.2968,4.60003,2470.04,2019-11-01T10:21:16Z
2019-11-01T08:23:53Z,42.805,6.029,13.2968,4.59976,2470.077,2019-11-01T10:24:19Z
2019-11-01T08:26:56Z,42.805,6.029,13.2974,4.59983,2470.053,2019-11-01T10:27:23Z
2019-11-01T08:29:59Z,42.805,6.029,13.2967,4.59999,2470.053,2019-11-01T10:30:26Z
2019-11-01T08:33:02Z,42.805,6.029,13.2974,4.59990,2470.053,2019-11-01T10:33:29Z
2019-11-01T08:36:05Z,42.805,6.029,13.2976,4.60001,2470.04,2019-11-01T10:36:32Z
2019-11-01T08:39:09Z,42.805,6.029,13.2968,4.60008,2470.063,2019-11-01T10:39:35Z
2019-11-01T08:42:12Z,42.805,6.029,13.2964,4.59980,2470.087,2019-11-01T10:42:39Z
2019-11-01T08:45:15Z,42.805,6.029,13.2971,4.59981,2470.053,2019-11-01T10:45:42Z
2019-11-01T08:48:18Z,42.805,6.029,13.2964,4.59976,2470.063,2019-11-01T10:48:45Z
2019-11-01T08:51:22Z,42.805,6.029,13.2974,4.60000,2470.077,2019-11-01T10:51:48Z
2019-11-01T08:54:25Z,42.805,6.029,13.2974,4.60005,2470.063,2019-11-01T10:54:51Z
2019-11-01T08:57:28Z,42.805,6.029,13.2981,4.60011,2470.087,2019-11-01T10:57:55Z
2019-11-01T09:00:31Z,42.805,6.029,13.2980,4.59999,2470.077,2019-11-01T11:00:58Z
2019-11-01T09:03:34Z,42.805,6.029,13.2982,4.60001,2470.063,2019-11-01T11:04:01Z
2019-11-01T09:06:37Z,42.805,6.029,13.2974,4.60003,2470.077,2019-11-01T11:07:04Z
2019-11-01T09:09:41Z,42.805,6.029,13.2970,4.59999,2470.087,2019-11-01T11:10:07Z
2019-11-01T09:12:44Z,42.805,6.029,13.2974,4.60014,2470.063,2019-11-01T11:13:11Z
2019-11-01T09:15:47Z,42.805,6.029,13.2971,4.60005,2470.063,2019-11-01T11:16:14Z
2019-11-01T09:18:50Z,42.805,6.029,13.2981,4.59986,2470.1,2019-11-01T11:19:17Z
2019-11-01T09:21:54Z,42.805,6.029,13.2967,4.59981,2470.087,2019-11-01T11:22:20Z
2019-11-01T09:24:57Z,42.805,6.029,13.2971,4.59988,2470.124,2019-11-01T11:25:23Z
2019-11-01T09:28:00Z,42.805,6.029,13.2968,4.59981,2470.053,2019-11-01T11:28:27Z
2019-11-01T09:31:03Z,42.805,6.029,13.2975,4.59986,2470.063,2019-11-01T11:31:30Z
2019-11-01T09:34:07Z,42.805,6.029,13.2975,4.60004,2470.04,2019-11-01T11:34:33Z
2019-11-01T09:37:10Z,42.805,6.029,13.2968,4.59983,2470.077,2019-11-01T11:37:36Z
2019-11-01T09:40:13Z,42.805,6.029,13.2980,4.59996,2470.063,2019-11-01T11:40:40Z
2019-11-01T09:43:16Z,42.805,6.029,13.2967,4.59984,2470.087,2019-11-01T11:43:43Z
2019-11-01T09:46:19Z,42.805,6.029,13.2970,4.59986,2470.04,2019-11-01T11:46:46Z
2019-11-01T09:49:23Z,42.805,6.029,13.2973,4.59996,2470.087,2019-11-01T11:49:49Z
2019-11-01T09:52:26Z,42.805,6.029,13.2967,4.59985,2470.087,2019-11-01T11:52:53Z
2019-11-01T09:55:29Z,42.805,6.029,13.2971,4.59991,2470.073,2019-11-01T11:55:56Z
2019-11-01T09:58:33Z,42.805,6.029,13.2980,4.60009,2470.087,2019-11-01T11:58:59Z
2019-11-01T10:01:36Z,42.805,6.029,13.2995,4.60014,2470.1,2019-11-01T12:02:03Z
2019-11-01T10:04:39Z,42.805,6.029,13.2983,4.60004,2470.087,2019-11-01T12:05:06Z
2019-11-01T10:07:42Z,42.805,6.029,13.2981,4.60020,2470.124,2019-11-01T12:08:09Z
2019-11-01T10:10:46Z,42.805,6.029,13.2987,4.59995,2470.087,2019-11-01T12:11:12Z
2019-11-01T10:13:49Z,42.805,6.029,13.2982,4.60022,2470.04,2019-11-01T12:14:15Z
2019-11-01T10:16:52Z,42.805,6.029,13.2974,4.59995,2470.077,2019-11-01T12:17:19Z
2019-11-01T10:19:55Z,42.805,6.029,13.2968,4.59978,2470.053,2019-11-01T12:20:22Z
2019-11-01T10:22:58Z,42.805,6.029,13.2970,4.59981,2470.063,2019-11-01T12:23:25Z
2019-11-01T10:26:02Z,42.805,6.029,13.2980,4.60001,2470.087,2019-11-01T12:26:28Z
2019-11-01T10:29:05Z,42.805,6.029,13.2971,4.59986,2470.063,2019-11-01T12:29:32Z
2019-11-01T10:32:08Z,42.805,6.029,13.2977,4.60039,2470.077,2019-11-01T12:32:35Z
2019-11-01T10:35:11Z,42.805,6.029,13.2996,4.60014,2470.1,2019-11-01T12:35:38Z
2019-11-01T10:38:15Z,42.805,6.029,13.2991,4.60024,2470.1,2019-11-01T12:38:41Z
2019-11-01T10:41:18Z,42.805,6.029,13.2976,4.59991,2470.063,2019-11-01T12:41:45Z
2019-11-01T10:44:21Z,42.805,6.029,13.2971,4.60004,2470.053,2019-11-01T12:44:48Z
2019-11-01T10:47:24Z,42.805,6.029,13.2971,4.60008,2470.077,2019-11-01T12:47:51Z
2019-11-01T10:50:28Z,42.805,6.029,13.2968,4.60008,2470.04,2019-11-01T12:50:54Z
2019-11-01T10:53:31Z,42.805,6.029,13.2985,4.60009,2470.04,2019-11-01T12:53:57Z
2019-11-01T10:56:34Z,42.805,6.029,13.2982,4.60009,2470.087,2019-11-01T12:57:01Z
2019-11-01T10:59:37Z,42.805,6.029,13.2997,4.60001,2470.04,2019-11-01T13:00:04Z
2019-11-01T11:02:40Z,42.805,6.029,13.2973,4.59996,2470.063,2019-11-01T13:03:07Z
2019-11-01T11:05:43Z,42.805,6.029,13.2982,4.60009,2470.063,2019-11-01T13:06:10Z
2019-11-01T11:08:47Z,42.805,6.029,13.3004,4.60001,2470.1,2019-11-01T13:09:13Z
2019-11-01T11:11:50Z,42.805,6.029,13.2986,4.60021,2470.063,2019-11-01T13:12:17Z
2019-11-01T11:14:53Z,42.805,6.029,13.2989,4.60014,2470.04,2019-11-01T13:15:20Z
2019-11-01T11:17:56Z,42.805,6.029,13.2980,4.60024,2470.063,2019-11-01T13:18:23Z
2019-11-01T11:20:59Z,42.805,6.029,13.2973,4.59985,2470.053,2019-11-01T13:21:26Z
2019-11-01T11:24:03Z,42.805,6.029,13.2970,4.60009,2470.04,2019-11-01T13:24:29Z
2019-11-01T11:27:06Z,42.805,6.029,13.2986,4.60014,2470.04,2019-11-01T13:27:33Z
2019-11-01T11:30:09Z,42.805,6.029,13.2996,4.60038,2470.077,2019-11-01T13:30:36Z
2019-11-01T11:33:12Z,42.805,6.029,13.2993,4.60015,2470.077,2019-11-01T13:33:39Z
2019-11-01T11:36:15Z,42.805,6.029,13.2973,4.59996,2470.053,2019-11-01T13:36:42Z
2019-11-01T11:39:19Z,42.805,6.029,13.2979,4.59994,2470.053,2019-11-01T13:39:45Z
2019-11-01T11:42:22Z,42.805,6.029,13.2968,4.59981,2470.03,2019-11-01T13:42:49Z
2019-11-01T11:45:25Z,42.805,6.029,13.2969,4.59983,2470.04,2019-11-01T13:45:52Z
2019-11-01T11:48:28Z,42.805,6.029,13.2976,4.59981,2470.04,2019-11-01T13:48:55Z
2019-11-01T11:51:31Z,42.805,6.029,13.2971,4.59996,2470.04,2019-11-01T13:51:58Z
2019-11-01T11:54:35Z,42.805,6.029,13.2974,4.60000,2470.017,2019-11-01T13:55:01Z
2019-11-01T11:57:38Z,42.805,6.029,13.2992,4.60021,2470.007,2019-11-01T13:58:04Z
2019-11-01T12:00:41Z,42.805,6.029,13.3003,4.60015,2470.017,2019-11-01T14:01:08Z
2019-11-01T12:03:44Z,42.805,6.029,13.2993,4.60023,2470.053,2019-11-01T14:04:11Z
2019-11-01T12:06:47Z,42.805,6.029,13.2985,4.60004,2469.993,2019-11-01T14:07:14Z
2019-11-01T12:09:51Z,42.805,6.029,13.2998,4.60029,2470.03,2019-11-01T14:10:17Z
2019-11-01T12:12:54Z,42.805,6.029,13.2993,4.60014,2470.017,2019-11-01T14:13:20Z
2019-11-01T12:15:57Z,42.805,6.029,13.3014,4.60040,2470.053,2019-11-01T14:16:24Z
2019-11-01T12:19:00Z,42.805,6.029,13.3019,4.60015,2470.007,2019-11-01T14:19:27Z
2019-11-01T12:22:03Z,42.805,6.029,13.2988,4.60026,2470.007,2019-11-01T14:22:30Z
2019-11-01T12:25:06Z,42.805,6.029,13.2996,4.60019,2470.053,2019-11-01T14:25:33Z
2019-11-01T12:28:10Z,42.805,6.029,13.2979,4.60034,2469.984,2019-11-01T14:28:36Z
2019-11-01T12:31:13Z,42.805,6.029,13.3010,4.60029,2469.993,2019-11-01T14:31:40Z
2019-11-01T12:34:16Z,42.805,6.029,13.2994,4.60043,2469.984,2019-11-01T14:34:43Z
2019-11-01T12:37:19Z,42.805,6.029,13.2993,4.60017,2470.03,2019-11-01T14:37:46Z
2019-11-01T12:40:22Z,42.805,6.029,13.2998,4.60032,2470.007,2019-11-01T14:40:49Z
2019-11-01T12:43:26Z,42.805,6.029,13.2983,4.60015,2470.03,2019-11-01T14:43:52Z
2019-11-01T12:46:29Z,42.805,6.029,13.2980,4.60031,2469.993,2019-11-01T14:46:56Z
2019-11-01T12:49:32Z,42.805,6.029,13.3009,4.60014,2470.007,2019-11-01T14:49:59Z
2019-11-01T12:52:35Z,42.805,6.029,13.2994,4.60022,2470.03,2019-11-01T14:53:02Z
2019-11-01T12:55:38Z,42.805,6.029,13.2978,4.60021,2469.97,2019-11-01T14:56:05Z
2019-11-01T12:58:41Z,42.805,6.029,13.2976,4.60024,2470.017,2019-11-01T14:59:08Z
2019-11-01T13:01:45Z,42.805,6.029,13.2973,4.60028,2469.993,2019-11-01T15:02:11Z
2019-11-01T13:04:48Z,42.805,6.029,13.2986,4.60034,2469.984,2019-11-01T15:05:15Z
2019-11-01T13:07:51Z,42.805,6.029,13.3002,4.60053,2469.97,2019-11-01T15:08:18Z
2019-11-01T13:10:54Z,42.805,6.029,13.3003,4.59992,2469.993,2019-11-01T15:11:21Z
2019-11-01T13:13:58Z,42.805,6.029,13.2986,4.60019,2469.97,2019-11-01T15:14:24Z
2019-11-01T13:17:01Z,42.805,6.029,13.2973,4.60033,2469.993,2019-11-01T15:17:27Z
2019-11-01T13:20:04Z,42.805,6.029,13.2986,4.60044,2470.007,2019-11-01T15:20:31Z
2019-11-01T13:23:07Z,42.805,6.029,13.2986,4.60046,2470.007,2019-11-01T15:23:34Z
2019-11-01T13:26:10Z,42.805,6.029,13.2994,4.60005,2469.947,2019-11-01T15:26:37Z
2019-11-01T13:29:14Z,42.805,6.029,13.2969,4.60021,2469.984,2019-11-01T15:29:40Z
2019-11-01T13:32:17Z,42.805,6.029,13.2985,4.60028,2469.993,2019-11-01T15:32:44Z
2019-11-01T13:35:20Z,42.805,6.029,13.2999,4.60027,2469.947,2019-11-01T15:35:47Z
2019-11-01T13:38:24Z,42.805,6.029,13.2979,4.60033,2469.984,2019-11-01T15:38:50Z
2019-11-01T13:41:27Z,42.805,6.029,13.2999,4.60026,2469.923,2019-11-01T15:41:53Z
2019-11-01T13:44:30Z,42.805,6.029,13.2975,4.60014,2470.017,2019-11-01T15:44:57Z
2019-11-01T13:47:33Z,42.805,6.029,13.2987,4.59988,2469.947,2019-11-01T15:48:00Z
2019-11-01T13:50:36Z,42.805,6.029,13.2988,4.60019,2469.984,2019-11-01T15:51:03Z
2019-11-01T13:53:39Z,42.805,6.029,13.2986,4.60022,2469.96,2019-11-01T15:54:06Z
2019-11-01T13:56:43Z,42.805,6.029,13.3017,4.60003,2469.96,2019-11-01T15:57:09Z
2019-11-01T13:59:46Z,42.805,6.029,13.2988,4.60016,2469.96,2019-11-01T16:00:13Z
2019-11-01T14:02:49Z,42.805,6.029,13.2991,4.60011,2469.923,2019-11-01T16:03:16Z
2019-11-01T14:05:52Z,42.805,6.029,13.2985,4.59988,2469.984,2019-11-01T16:06:19Z
2019-11-01T14:08:56Z,42.805,6.029,13.2990,4.60036,2469.96,2019-11-01T16:09:22Z
2019-11-01T14:11:59Z,42.805,6.029,13.2991,4.60038,2469.947,2019-11-01T16:12:26Z
2019-11-01T14:15:02Z,42.805,6.029,13.2982,4.60020,2469.984,2019-11-01T16:15:29Z
2019-11-01T14:18:05Z,42.805,6.029,13.2970,4.60001,2469.947,2019-11-01T16:18:32Z
2019-11-01T14:21:08Z,42.805,6.029,13.2973,4.60031,2469.947,2019-11-01T16:21:35Z
2019-11-01T14:24:12Z,42.805,6.029,13.2986,4.60029,2469.96,2019-11-01T16:24:38Z
2019-11-01T14:27:15Z,42.805,6.029,13.2990,4.60037,2469.947,2019-11-01T16:27:42Z
2019-11-01T14:30:18Z,42.805,6.029,13.2992,4.60030,2469.937,2019-11-01T16:30:45Z
2019-11-01T14:33:21Z,42.805,6.029,13.2988,4.60033,2469.923,2019-11-01T16:33:48Z
2019-11-01T14:36:24Z,42.805,6.029,13.2993,4.60034,2469.96,2019-11-01T16:36:51Z
2019-11-01T14:39:28Z,42.805,6.029,13.2986,4.60024,2469.937,2019-11-01T16:39:54Z
2019-11-01T14:42:31Z,42.805,6.029,13.2974,4.60026,2469.9,2019-11-01T16:42:58Z
2019-11-01T14:45:34Z,42.805,6.029,13.3008,4.60013,2469.923,2019-11-01T16:46:01Z
2019-11-01T14:48:37Z,42.805,6.029,13.2999,4.60007,2469.937,2019-11-01T16:49:04Z
2019-11-01T14:51:41Z,42.805,6.029,13.2982,4.59980,2469.937,2019-11-01T16:52:07Z
2019-11-01T14:54:44Z,42.805,6.029,13.2990,4.60014,2469.947,2019-11-01T16:55:10Z
2019-11-01T14:57:47Z,42.805,6.029,13.3010,4.60017,2469.923,2019-11-01T16:58:14Z
2019-11-01T15:00:50Z,42.805,6.029,13.2996,4.60021,2469.947,2019-11-01T17:01:17Z